| time (UTC) | temp C | wind direction | speed KPH | gust KPH | rain 1hr cm | rain 24hr cm | rain mn cm | humidity % | barometer mb |
| 20260503230055 | 16 | 220 | 9.7 | 19.3 | 0.00 | 0.00 | 0.00 | 39 | 1015.6 |
| 20260503224552 | 16 | 165 | 8.0 | 19.3 | 0.00 | 0.00 | 0.00 | 41 | 1015.8 |
| 20260503223054 | 16 | 219 | 12.9 | 27.4 | 0.00 | 0.00 | 0.00 | 40 | 1016.2 |
| 20260503221600 | 16 | 225 | 8.0 | 27.4 | 0.00 | 0.00 | 0.00 | 41 | 1016.4 |
| 20260503220057 | 16 | 204 | 9.7 | 17.7 | 0.00 | 0.00 | 0.00 | 39 | 1016.0 |
| 20260503214554 | 17 | 227 | 6.4 | 17.7 | 0.00 | 0.00 | 0.00 | 41 | 1016.3 |
| 20260503213058 | 17 | 198 | 11.3 | 19.3 | 0.00 | 0.00 | 0.00 | 40 | 1016.4 |
| 20260503211600 | 16 | 202 | 11.3 | 20.9 | 0.00 | 0.00 | 0.00 | 42 | 1016.3 |
| 20260503210110 | 16 | 167 | 9.7 | 25.7 | 0.00 | 0.00 | 0.00 | 43 | 1016.5 |
| 20260503204555 | 16 | 227 | 8.0 | 25.7 | 0.00 | 0.00 | 0.00 | 40 | 1016.7 |
| 20260503203100 | 16 | 212 | 12.9 | 24.1 | 0.00 | 0.00 | 0.00 | 45 | 1017.1 |
| 20260503201553 | 16 | 189 | 11.3 | 25.7 | 0.00 | 0.00 | 0.00 | 43 | 1017.4 |
| 20260503200058 | 16 | 213 | 8.0 | 20.9 | 0.00 | 0.00 | 0.00 | 42 | 1017.6 |
| 20260503194601 | 16 | 235 | 9.7 | 19.3 | 0.00 | 0.00 | 0.00 | 42 | 1017.9 |
| 20260503193053 | 16 | 232 | 6.4 | 20.9 | 0.00 | 0.00 | 0.00 | 43 | 1018.3 |
| 20260503191554 | 16 | 161 | 9.7 | 19.3 | 0.00 | 0.00 | 0.00 | 44 | 1018.3 |
| 20260503190051 | 16 | 163 | 8.0 | 17.7 | 0.00 | 0.00 | 0.00 | 39 | 1018.6 |
| 20260503184552 | 15 | 196 | 9.7 | 24.1 | 0.00 | 0.00 | 0.00 | 40 | 1018.7 |
| 20260503183054 | 15 | 184 | 11.3 | 24.1 | 0.00 | 0.00 | 0.00 | 46 | 1019.0 |
| 20260503181549 | 15 | 213 | 4.8 | 17.7 | 0.00 | 0.00 | 0.00 | 40 | 1019.2 |
| 20260503180059 | 15 | 173 | 8.0 | 20.9 | 0.00 | 0.00 | 0.00 | 44 | 1019.2 |
| 20260503174557 | 15 | 78 | 3.2 | 22.5 | 0.00 | 0.00 | 0.00 | 42 | 1019.6 |
| 20260503173054 | 15 | 76 | 8.0 | 16.1 | 0.00 | 0.00 | 0.00 | 42 | 1019.9 |
| 20260503171552 | 14 | 234 | 6.4 | 14.5 | 0.00 | 0.00 | 0.00 | 40 | 1020.1 |
| 20260503110108 | 0 | 0 | 0.0 | 0.0 | 0.00 | 0.00 | 0.00 | 94 | 1020.1 |
| 20260503081552 | 1 | 0 | 0.0 | 0.0 | 0.00 | 0.00 | 0.00 | 92 | 1019.6 |
| 20260503071609 | 3 | 78 | 1.6 | 4.8 | 0.00 | 0.00 | 0.00 | 90 | 1019.1 |
| 20260503060110 | 3 | 0 | 0.0 | 0.0 | 0.00 | 0.00 | 0.00 | 93 | 1019.0 |
| 20260503054600 | 3 | 0 | 0.0 | 0.0 | 0.00 | 0.00 | 0.00 | 94 | 1019.0 |
| 20260503053051 | 3 | 0 | 0.0 | 0.0 | 0.00 | 0.00 | 0.00 | 93 | 1019.0 |
| 20260503051552 | 3 | 0 | 0.0 | 1.6 | 0.00 | 0.00 | 0.00 | 93 | 1019.0 |
| 20260503050054 | 3 | 0 | 0.0 | 0.0 | 0.00 | 0.00 | 0.00 | 92 | 1018.8 |
| 20260503044549 | 3 | 0 | 0.0 | 0.0 | 0.00 | 0.00 | 0.00 | 92 | 1018.7 |
| 20260503043050 | 3 | 0 | 0.0 | 0.0 | 0.00 | 0.00 | 0.00 | 92 | 1018.7 |
| 20260503041553 | 4 | 0 | 0.0 | 0.0 | 0.00 | 0.00 | 0.00 | 91 | 1018.6 |
| 20260503034551 | 5 | 0 | 0.0 | 0.0 | 0.00 | 0.00 | 0.00 | 90 | 1018.5 |
| 20260503033052 | 5 | 0 | 0.0 | 0.0 | 0.00 | 0.00 | 0.00 | 89 | 1018.6 |
| 20260503031602 | 5 | 0 | 0.0 | 0.0 | 0.00 | 0.00 | 0.00 | 88 | 1018.7 |
| 20260503030050 | 5 | 0 | 0.0 | 0.0 | 0.00 | 0.00 | 0.00 | 88 | 1018.6 |
| 20260503024551 | 6 | 0 | 0.0 | 0.0 | 0.00 | 0.00 | 0.00 | 85 | 1018.5 |
| 20260503023054 | 6 | 0 | 0.0 | 0.0 | 0.00 | 0.00 | 0.00 | 84 | 1018.3 |
| 20260503021600 | 7 | 0 | 0.0 | 1.6 | 0.00 | 0.00 | 0.00 | 82 | 1018.2 |
| 20260503020054 | 7 | 0 | 0.0 | 1.6 | 0.00 | 0.00 | 0.00 | 80 | 1018.0 |
| 20260503014609 | 8 | 0 | 0.0 | 0.0 | 0.00 | 0.00 | 0.00 | 78 | 1017.9 |
| 20260503013051 | 8 | 0 | 0.0 | 0.0 | 0.00 | 0.00 | 0.00 | 75 | 1017.7 |
| 20260503011600 | 8 | 0 | 0.0 | 0.0 | 0.00 | 0.00 | 0.00 | 74 | 1017.5 |
| 20260503010050 | 8 | 0 | 0.0 | 0.0 | 0.00 | 0.00 | 0.00 | 73 | 1017.4 |
| 20260503004611 | 9 | 0 | 0.0 | 1.6 | 0.00 | 0.00 | 0.00 | 71 | 1017.2 |
| 20260503003053 | 10 | 0 | 0.0 | 4.8 | 0.00 | 0.00 | 0.00 | 71 | 1017.1 |
| 20260503001604 | 10 | 0 | 0.0 | 0.0 | 0.00 | 0.00 | 0.00 | 69 | 1017.0 |
| 20260503000057 | 10 | 0 | 0.0 | 1.6 | 0.00 | 0.00 | 0.00 | 69 | 1016.9 |
| 20260502234554 | 11 | 0 | 0.0 | 4.8 | 0.00 | 0.00 | 0.00 | 66 | 1016.7 |
| 20260502233049 | 11 | 311 | 1.6 | 6.4 | 0.00 | 0.00 | 0.00 | 61 | 1016.7 |
| 20260502231552 | 12 | 18 | 1.6 | 12.9 | 0.00 | 0.00 | 0.00 | 58 | 1016.7 |